Wind_Speed
23 21 20 19 19 19 18 17 17 17 19 22 24 21 21 23 26 29 32 35 38 42 46 50 55 59 63 66 69 72 74 77 79 82 86 89 91 94 96 97 97 96 94 91
21 20 19 19 20 20 20 21 20 18 18 20 20 21 23 26 29 32 35 39 43 47 52 56 61 64 68 71 73 76 78 81 84 87 90 92 93 93 93 92 90 87 84 81
23 21 21 22 22 21 20 20 18 16 16 18 21 25 27 30 33 37 41 45 49 54 58 62 65 68 71 74 76 79 82 86 90 92 92 91 90 88 85 82 78 75 73 72
20 21 22 22 22 21 20 19 18 18 20 23 26 29 32 36 40 44 48 52 55 59 62 65 68 71 73 75 78 82 87 91 93 92 89 86 82 78 75 72 69 68 67 68
18 20 20 21 20 21 20 21 22 24 26 28 32 35 38 42 47 50 53 56 59 63 65 68 70 73 76 79 82 87 90 91 89 86 82 77 72 69 68 66 66 67 69 71
18 19 20 20 19 20 22 24 26 30 32 35 38 41 44 48 51 54 57 60 63 65 68 70 73 76 79 83 86 88 88 86 82 78 74 70 67 66 66 67 69 72 74 78
16 17 19 19 19 22 25 28 30 34 37 40 43 47 50 53 56 58 61 64 66 68 70 73 76 80 84 87 88 86 83 79 74 71 69 67 66 67 70 72 75 78 81 84
18 19 21 22 24 26 29 32 35 38 42 45 48 51 54 56 59 61 64 66 68 70 74 77 82 85 88 87 84 80 75 72 69 67 68 68 70 72 76 80 83 86 89 91
21 24 25 27 29 31 34 37 40 43 46 49 51 54 56 59 61 64 67 69 71 74 78 83 86 87 87 84 78 73 69 68 67 67 69 72 75 78 82 87 91 94 96 95
25 28 32 33 35 37 39 41 44 46 48 50 53 55 58 61 64 67 69 71 74 78 83 86 87 87 84 79 72 68 66 66 68 70 72 76 80 85 89 93 96 96 93 89
29 33 36 37 39 41 43 45 47 48 50 51 54 57 60 63 66 69 71 73 77 82 85 86 85 82 77 72 68 66 66 68 70 74 78 82 86 89 92 92 90 86 81 75
32 34 38 40 43 46 48 49 51 52 53 55 57 60 63 66 68 70 73 77 81 84 85 84 80 74 70 67 66 67 69 72 76 81 85 88 89 87 83 78 72 67 64 60
37 39 41 43 46 49 52 54 56 57 57 58 60 63 66 68 69 72 76 81 82 82 81 78 73 68 65 64 66 70 74 78 81 85 87 86 83 78 70 62 56 54 53 51
42 45 46 49 52 55 57 59 60 60 60 61 63 65 67 69 72 76 80 81 81 79 76 72 66 63 63 65 68 73 78 82 84 84 81 76 70 65 62 57 49 46 46 45
48 50 53 55 58 60 61 61 60 59 60 62 64 66 68 72 76 80 81 80 77 73 69 65 61 61 63 67 71 76 80 82 81 76 71 66 62 61 58 53 48 46 44 40
54 57 59 61 62 62 61 58 57 58 60 63 65 68 71 75 78 80 79 75 70 66 63 60 59 61 65 69 74 78 81 79 75 70 65 63 61 58 53 49 48 47 44 39
58 60 61 61 59 57 55 55 56 59 61 63 66 70 73 76 77 76 73 69 65 61 59 58 59 62 67 72 77 80 78 75 71 67 64 61 57 54 51 50 49 46 42 39
57 56 55 53 52 53 54 56 57 59 61 64 68 72 75 76 75 71 67 63 59 57 58 59 62 65 69 74 78 79 75 70 66 62 59 56 53 52 51 49 47 45 41 38
50 50 51 52 52 53 54 56 57 60 63 67 72 74 76 75 72 67 62 58 56 56 57 60 63 67 71 76 78 76 70 64 60 57 55 54 52 51 50 48 45 43 39 36
49 49 50 51 51 53 55 57 60 63 67 71 73 75 74 70 65 60 56 55 56 57 58 61 64 68 73 76 76 72 65 60 57 57 56 54 52 49 46 44 42 39 36 33
50 50 51 52 54 56 58 61 63 67 70 72 73 72 69 63 58 55 54 54 56 58 60 63 67 71 74 75 73 67 61 58 56 56 55 52 49 47 44 42 39 37 34 29
52 53 54 56 58 60 61 64 67 69 71 71 69 66 61 56 54 53 54 56 57 59 61 65 69 73 75 74 69 63 58 56 55 55 53 51 48 45 42 39 37 34 30 24
54 55 57 59 60 61 64 67 69 69 69 68 64 59 55 52 52 53 54 56 58 60 63 67 71 75 75 72 65 59 56 54 54 53 52 49 47 44 41 38 35 30 25 21
56 58 59 60 61 63 66 68 69 68 67 62 58 54 52 52 53 55 56 58 60 63 65 69 74 76 74 68 61 56 54 53 52 52 50 47 45 42 40 37 31 26 21 17
58 58 59 60 62 64 66 67 66 63 59 55 53 52 52 53 54 56 58 60 63 65 68 72 76 75 70 63 57 53 52 52 51 50 47 44 42 39 37 32 26 20 15 14
56 56 59 62 63 64 64 62 59 56 54 52 51 52 53 55 57 59 61 63 65 68 71 75 75 71 64 58 53 51 51 50 49 46 43 39 37 35 31 25 18 13 10 11
56 59 61 62 62 60 58 55 53 52 51 50 50 52 54 56 59 61 63 65 67 71 75 76 72 65 58 53 50 50 49 48 45 41 37 34 32 28 23 17 11 8 7 7
Wind_Direction
195 200 206 213 219 225 231 237 240 240 246 257 272 286 291 291 293 296 300 302 302 302 302 303 303 303 304 303 303 303 302 302 302 302 301 301 300 299 298 298 297 297 296 295
202 205 210 216 222 228 234 240 243 241 244 259 278 284 287 292 298 302 304 305 305 305 305 304 304 303 303 302 302 302 302 302 302 302 302 302 301 300 298 298 297 297 297 297
208 214 219 222 229 235 241 247 250 248 254 268 278 285 292 297 301 303 304 305 306 306 305 304 303 302 302 302 302 303 303 303 304 304 303 302 300 299 298 298 299 299 300 299
213 216 220 224 232 239 247 255 260 263 269 277 284 290 296 301 302 303 304 305 305 305 304 303 303 302 303 303 304 305 305 306 306 305 303 301 299 298 299 300 301 301 301 300
226 228 234 239 240 246 253 259 266 272 277 283 288 293 298 300 302 304 305 305 305 305 304 304 304 305 305 306 307 308 308 307 306 304 301 299 299 300 301 302 302 302 302 301
239 240 242 246 248 252 257 263 271 278 283 288 292 296 299 302 304 304 304 304 304 305 305 306 307 307 308 309 309 309 308 307 304 302 300 299 299 300 301 303 303 303 302 302
241 242 244 250 253 259 266 273 278 283 288 292 295 297 299 302 303 304 305 305 306 307 308 309 309 310 310 311 311 310 308 305 303 301 300 299 299 301 302 303 303 303 302 302
246 248 252 259 262 267 273 278 283 287 290 293 296 299 303 305 306 306 307 308 309 310 310 311 311 311 312 312 311 309 307 305 303 302 301 301 302 304 305 305 305 304 303 302
255 261 263 266 272 277 280 285 289 292 296 300 303 305 306 307 307 308 309 310 310 311 311 311 312 313 313 312 311 309 307 306 305 304 304 305 306 306 306 306 306 305 304 303
264 270 274 278 281 284 289 293 297 300 303 305 306 307 308 308 309 309 310 310 310 311 312 313 314 313 312 311 310 309 308 307 307 307 307 308 308 308 308 307 306 306 305 305
269 274 279 284 288 292 295 298 300 303 304 305 306 306 307 308 308 308 308 309 311 313 314 314 314 313 312 311 310 309 309 309 310 310 310 309 308 308 308 308 309 309 309 309
275 279 283 288 292 295 297 299 301 302 302 303 304 305 306 306 306 307 309 311 313 314 314 314 313 312 311 311 311 311 311 312 312 311 310 309 308 308 310 311 312 313 313 313
278 281 283 287 291 294 295 296 298 299 300 301 302 303 304 305 306 308 311 312 313 314 314 313 312 311 311 312 312 313 313 313 313 311 310 310 310 311 312 313 314 314 314 315
279 282 285 289 291 293 294 296 297 299 299 300 301 302 304 306 308 310 312 313 314 314 313 312 311 311 312 313 314 315 315 314 313 312 312 312 312 313 313 314 314 314 315 315
281 284 288 291 292 294 295 296 297 298 298 299 301 303 305 308 310 312 313 314 313 312 311 310 311 312 312 314 316 317 317 316 315 314 314 314 314 314 314 314 314 316 318 317
284 287 291 293 294 295 296 296 296 297 298 300 302 304 307 310 312 313 313 312 311 310 309 309 311 312 313 316 319 320 319 317 316 315 315 315 314 314 314 314 314 316 317 316
287 290 292 293 293 293 293 294 295 297 298 300 303 306 309 311 312 311 311 310 309 308 308 310 311 313 315 319 322 322 320 318 316 315 314 314 313 313 312 313 314 315 316 315
288 289 290 290 290 291 291 293 295 296 298 302 306 310 312 313 312 310 310 308 307 307 308 310 312 314 318 321 323 322 320 318 316 315 315 315 314 313 313 313 314 315 316 314
288 290 290 290 290 290 291 293 296 299 303 308 311 314 313 312 310 308 307 305 304 305 307 310 313 316 319 322 323 321 319 317 317 317 317 316 315 314 313 312 313 314 315 315
291 290 289 288 289 291 293 296 300 304 307 311 313 313 312 309 307 305 304 303 303 305 308 311 313 316 319 322 322 320 317 315 315 315 316 316 315 314 313 312 312 314 316 316
290 290 289 290 292 295 297 301 304 307 310 312 313 311 309 306 303 302 302 302 304 307 310 312 315 317 320 322 321 318 315 313 314 315 315 315 315 315 314 313 314 315 316 314
291 292 292 294 296 298 301 303 306 309 311 311 310 307 304 302 301 301 303 305 307 309 311 313 315 318 320 321 319 316 314 313 314 315 315 315 315 315 313 313 314 315 315 313
292 293 294 296 298 300 302 305 307 309 309 308 306 303 302 301 302 303 305 307 309 310 312 313 316 318 320 320 318 315 314 314 314 314 314 314 313 312 311 310 311 311 310 310
293 294 296 297 299 301 304 306 308 308 307 305 302 301 301 303 304 306 307 309 310 311 313 314 316 318 319 318 316 314 314 314 314 314 313 313 311 309 308 307 305 304 303 304
293 294 296 298 300 303 305 307 307 305 303 301 301 301 303 305 306 307 309 310 311 312 313 315 316 318 317 316 314 313 313 314 314 314 313 312 310 308 307 303 298 294 294 298
292 294 296 299 302 304 306 305 303 301 301 301 302 304 306 307 308 309 310 310 311 311 313 314 316 316 315 313 312 312 313 314 315 314 314 313 312 310 308 303 291 281 285 294
294 296 299 301 303 304 302 300 299 300 301 302 304 305 307 307 308 308 309 309 310 311 312 314 315 314 313 312 311 312 314 315 315 315 314 313 313 312 309 301 279 261 275 289
Height
5728 5731 5734 5737 5739 5741 5743 5744 5746 5746 5744 5741 5739 5739 5738 5736 5734 5731 5729 5726 5722 5719 5714 5709 5703 5697 5690 5682 5675 5667 5660 5652 5644 5635 5625 5615 5605 5593 5582 5571 5560 5549 5540 5531
5725 5728 5731 5733 5734 5736 5737 5737 5738 5738 5738 5736 5734 5733 5731 5729 5726 5723 5719 5715 5711 5706 5701 5696 5689 5682 5674 5667 5659 5651 5642 5633 5624 5614 5603 5592 5580 5568 5557 5546 5536 5525 5516 5508
5722 5724 5726 5728 5728 5729 5730 5730 5731 5732 5732 5731 5729 5727 5724 5721 5717 5713 5708 5703 5698 5693 5687 5681 5674 5666 5659 5651 5643 5634 5624 5613 5602 5592 5580 5568 5555 5543 5533 5523 5515 5506 5497 5489
5717 5720 5721 5725 5724 5724 5724 5724 5725 5725 5725 5724 5722 5719 5715 5711 5706 5701 5696 5691 5685 5679 5673 5666 5659 5651 5642 5634 5625 5615 5603 5591 5580 5568 5556 5544 5532 5522 5512 5504 5496 5488 5480 5471
5712 5714 5716 5717 5718 5718 5719 5718 5718 5718 5717 5715 5712 5709 5705 5700 5694 5689 5684 5678 5672 5665 5658 5650 5642 5633 5624 5615 5605 5594 5581 5568 5556 5544 5533 5522 5512 5503 5495 5487 5479 5471 5462 5453
5706 5708 5709 5711 5711 5712 5713 5712 5711 5709 5707 5704 5700 5697 5694 5688 5683 5678 5672 5665 5658 5650 5641 5633 5624 5615 5606 5596 5585 5573 5559 5546 5534 5522 5512 5503 5495 5486 5477 5469 5461 5452 5444 5434
5700 5701 5702 5704 5705 5705 5706 5705 5702 5699 5696 5692 5689 5685 5681 5675 5670 5664 5657 5649 5641 5632 5624 5615 5607 5597 5587 5576 5564 5551 5538 5526 5514 5504 5494 5486 5478 5468 5459 5450 5442 5434 5425 5415
5694 5695 5698 5697 5697 5698 5697 5695 5692 5689 5685 5681 5676 5671 5666 5660 5654 5648 5640 5633 5624 5615 5607 5598 5590 5579 5567 5555 5543 5530 5519 5508 5497 5488 5477 5468 5460 5450 5440 5429 5420 5410 5399 5389
5689 5690 5690 5688 5688 5687 5685 5683 5679 5676 5671 5666 5661 5656 5650 5644 5638 5631 5623 5615 5606 5598 5589 5579 5568 5556 5544 5532 5521 5510 5500 5490 5481 5472 5462 5451 5441 5431 5421 5409 5395 5383 5371 5359
5681 5680 5678 5678 5676 5675 5672 5669 5666 5662 5657 5651 5646 5640 5635 5628 5621 5614 5606 5598 5590 5581 5571 5559 5546 5534 5523 5512 5502 5492 5484 5475 5466 5456 5447 5436 5424 5411 5398 5385 5370 5356 5343 5332
5672 5670 5667 5666 5664 5662 5659 5655 5652 5648 5643 5638 5633 5627 5621 5613 5606 5599 5591 5583 5573 5562 5551 5539 5527 5514 5503 5494 5485 5477 5469 5460 5450 5439 5428 5417 5405 5391 5376 5363 5344 5329 5318 5308
5663 5661 5659 5656 5652 5649 5646 5642 5638 5634 5630 5625 5619 5613 5606 5599 5591 5584 5575 5566 5555 5544 5533 5521 5509 5498 5488 5479 5471 5462 5453 5444 5433 5421 5408 5395 5382 5372 5360 5343 5329 5315 5303 5294
5652 5650 5648 5646 5642 5638 5634 5630 5625 5621 5616 5611 5604 5598 5591 5584 5576 5567 5558 5548 5536 5525 5514 5504 5494 5484 5475 5466 5457 5447 5437 5426 5415 5402 5387 5373 5359 5348 5341 5335 5322 5307 5296 5287
5639 5637 5635 5632 5629 5624 5620 5616 5611 5606 5601 5595 5589 5582 5575 5566 5558 5549 5540 5529 5518 5506 5496 5488 5479 5470 5462 5453 5444 5434 5421 5408 5394 5381 5367 5354 5342 5332 5323 5317 5311 5303 5292 5282
5625 5623 5621 5617 5613 5609 5605 5600 5596 5591 5585 5579 5573 5565 5557 5549 5540 5531 5521 5510 5500 5489 5480 5473 5465 5457 5448 5439 5430 5418 5404 5389 5376 5362 5350 5338 5328 5319 5311 5303 5297 5291 5284 5276
5610 5608 5605 5602 5598 5593 5589 5585 5581 5576 5570 5563 5557 5549 5542 5533 5523 5513 5502 5492 5484 5474 5466 5458 5451 5443 5434 5424 5413 5401 5386 5371 5356 5345 5334 5325 5315 5307 5299 5292 5285 5279 5273 5267
5596 5593 5589 5586 5581 5578 5574 5570 5566 5561 5555 5548 5541 5534 5525 5515 5505 5495 5485 5475 5467 5458 5451 5444 5437 5428 5418 5407 5395 5382 5369 5355 5342 5330 5320 5311 5302 5295 5288 5282 5275 5269 5263 5258
5582 5579 5575 5571 5567 5564 5560 5556 5551 5545 5539 5532 5525 5516 5506 5497 5487 5477 5468 5459 5451 5444 5436 5429 5422 5413 5403 5390 5378 5366 5352 5340 5328 5317 5308 5299 5291 5284 5277 5271 5265 5259 5254 5249
5567 5564 5560 5556 5553 5549 5545 5540 5535 5529 5522 5515 5507 5497 5487 5478 5469 5461 5453 5446 5438 5433 5426 5416 5407 5398 5387 5375 5363 5350 5338 5327 5316 5306 5297 5288 5281 5274 5267 5261 5255 5249 5244 5240
5552 5549 5546 5542 5538 5534 5530 5525 5519 5512 5504 5496 5487 5477 5468 5459 5452 5446 5440 5432 5424 5417 5411 5402 5393 5384 5373 5361 5349 5336 5324 5314 5305 5295 5286 5278 5270 5263 5257 5251 5245 5240 5236 5232
5537 5534 5530 5526 5522 5518 5513 5507 5500 5493 5485 5477 5468 5460 5452 5444 5437 5432 5426 5420 5411 5402 5395 5386 5377 5368 5358 5346 5334 5322 5311 5302 5292 5283 5275 5267 5259 5253 5247 5241 5236 5232 5228 5225
5521 5518 5514 5510 5506 5501 5496 5489 5483 5475 5467 5459 5451 5443 5437 5430 5424 5417 5410 5403 5396 5388 5381 5372 5362 5352 5342 5330 5319 5308 5297 5288 5279 5271 5263 5255 5248 5242 5237 5232 5228 5224 5221 5218
5508 5504 5500 5496 5491 5486 5480 5473 5466 5458 5450 5442 5434 5427 5421 5415 5409 5403 5397 5388 5380 5373 5365 5356 5346 5336 5325 5314 5303 5293 5283 5275 5266 5258 5251 5244 5238 5232 5227 5223 5220 5217 5215 5213
5493 5489 5485 5481 5476 5470 5464 5457 5449 5441 5433 5426 5418 5412 5406 5401 5395 5386 5379 5373 5365 5358 5349 5340 5330 5319 5308 5298 5288 5279 5270 5262 5254 5246 5239 5232 5226 5221 5217 5213 5211 5210 5208 5207
5478 5474 5470 5465 5459 5453 5446 5438 5431 5423 5416 5410 5404 5397 5391 5385 5379 5373 5366 5358 5350 5341 5333 5324 5313 5303 5292 5282 5273 5265 5257 5249 5241 5234 5227 5221 5215 5210 5206 5204 5202 5202 5202 5202
5462 5458 5453 5448 5441 5434 5427 5420 5413 5407 5401 5395 5389 5382 5376 5370 5363 5357 5350 5342 5334 5325 5316 5307 5297 5286 5276 5267 5259 5252 5244 5237 5229 5222 5215 5209 5205 5200 5197 5195 5194 5196 5197 5196
5446 5441 5435 5428 5422 5416 5410 5404 5398 5392 5386 5381 5376 5369 5363 5356 5350 5343 5335 5327 5318 5309 5299 5289 5279 5269 5261 5253 5246 5239 5232 5224 5217 5210 5205 5200 5196 5193 5190 5188 5189 5191 5192 5192